TimeCST,TemperatureF,Dew PointF,Humidity,Sea Level PressureIn,VisibilityMPH,Wind Direction,Wind SpeedMPH,Gust SpeedMPH,PrecipitationIn,Events,Conditions,WindDirDegrees,DateUTC
1:53 AM,54.0,51.1,90,30.09,10.0,WSW,12.7,-,0.00,,Overcast,250,2012-11-23 07:53:00
2:42 AM,53.6,51.8,94,30.11,8.0,West,9.2,-,N/A,,Overcast,270,2012-11-23 08:42:00
2:53 AM,54.0,52.0,93,30.12,8.0,West,8.1,-,N/A,,Overcast,280,2012-11-23 08:53:00
3:09 AM,53.6,39.2,58,30.13,10.0,NNW,20.7,28.8,N/A,,Overcast,340,2012-11-23 09:09:00
3:53 AM,53.1,39.0,59,30.15,10.0,North,9.2,-,N/A,,Overcast,350,2012-11-23 09:53:00
4:53 AM,50.0,37.9,63,30.17,10.0,NNW,9.2,-,N/A,,Clear,330,2012-11-23 10:53:00
6:53 AM,42.1,33.1,70,30.22,10.0,NW,6.9,-,N/A,,Clear,310,2012-11-23 12:53:00
7:53 AM,45.0,37.0,74,30.23,10.0,West,5.8,-,N/A,,Clear,280,2012-11-23 13:53:00
8:53 AM,48.9,35.1,59,30.24,10.0,West,8.1,-,N/A,,Clear,270,2012-11-23 14:53:00
9:53 AM,51.1,32.0,48,30.25,10.0,NW,18.4,23.0,N/A,,Clear,310,2012-11-23 15:53:00
10:53 AM,51.1,32.0,48,30.25,10.0,NW,19.6,25.3,N/A,,Clear,320,2012-11-23 16:53:00
11:53 AM,50.0,33.1,52,30.25,10.0,NW,16.1,-,N/A,,Mostly Cloudy,310,2012-11-23 17:53:00
12:53 PM,48.0,30.9,52,30.25,10.0,NNW,16.1,-,N/A,,Scattered Clouds,330,2012-11-23 18:53:00
1:53 PM,50.0,30.9,48,30.24,10.0,WNW,16.1,21.9,N/A,,Partly Cloudy,300,2012-11-23 19:53:00
2:53 PM,48.9,30.0,48,30.25,10.0,NW,11.5,-,N/A,,Clear,310,2012-11-23 20:53:00
3:53 PM,46.9,28.9,50,30.27,10.0,WNW,15.0,-,N/A,,Clear,300,2012-11-23 21:53:00
4:53 PM,45.0,27.0,49,30.28,10.0,NW,10.4,-,N/A,,Clear,310,2012-11-23 22:53:00
5:53 PM,43.0,24.1,47,30.30,10.0,NNW,10.4,-,N/A,,Clear,330,2012-11-23 23:53:00
7:53 PM,37.0,21.9,54,30.34,10.0,WNW,9.2,-,N/A,,Clear,300,2012-11-24 01:53:00
8:53 PM,37.0,19.9,50,30.34,10.0,NW,12.7,-,N/A,,Clear,320,2012-11-24 02:53:00
9:53 PM,34.0,21.0,59,30.35,10.0,NNW,8.1,-,N/A,,Clear,340,2012-11-24 03:53:00
10:53 PM,33.1,21.0,61,30.35,10.0,North,8.1,-,N/A,,Clear,350,2012-11-24 04:53:00
11:53 PM,33.1,19.0,56,30.35,10.0,NNW,13.8,-,N/A,,Clear,340,2012-11-24 05:53:00